Schneifelwetter: Wetterstation Hallschlag, 537 m . NN
Wetterdaten: Dienstag, 22.11.2011
Datum Zeit Temp. A. Feuchte A. Luftdruck Regen Wind Richtung Richtung Sonnenschein Helligkeit T Regen Taupunkt Windchill
22.11.2011 00:01 -1,8 C 96 % 1015 hPa 0,0 l/m 0,0 km/h (0 Bft) W-SW 240 0 min 0 lux 0 min -2,4 C -1,8 C
22.11.2011 00:16 -2,0 C 96 % 1015 hPa 0,0 l/m 0,0 km/h (0 Bft) SW 235 0 min 0 lux 0 min -2,6 C -2,0 C
22.11.2011 00:31 -2,0 C 96 % 1015 hPa 0,0 l/m 0,0 km/h (0 Bft) W-SW 240 0 min 0 lux 0 min -2,6 C -2,0 C
22.11.2011 00:46 -2,0 C 96 % 1015 hPa 0,0 l/m 0,0 km/h (0 Bft) W-SW 240 0 min 0 lux 0 min -2,6 C -2,0 C
22.11.2011 01:01 -1,9 C 96 % 1015 hPa 0,0 l/m 0,0 km/h (0 Bft) W-SW 240 0 min 0 lux 0 min -2,5 C -1,9 C
22.11.2011 01:16 -2,0 C 96 % 1015 hPa 0,0 l/m 0,0 km/h (0 Bft) W-SW 240 0 min 0 lux 0 min -2,6 C -2,0 C
22.11.2011 01:31 -2,0 C 96 % 1015 hPa 0,0 l/m 0,0 km/h (0 Bft) W-SW 240 0 min 0 lux 0 min -2,6 C -2,0 C
22.11.2011 01:46 -1,8 C 96 % 1015 hPa 0,0 l/m 0,0 km/h (0 Bft) W-SW 240 0 min 0 lux 0 min -2,4 C -1,8 C
22.11.2011 02:01 -2,0 C 96 % 1015 hPa 0,0 l/m 0,0 km/h (0 Bft) W-SW 240 0 min 0 lux 0 min -2,6 C -2,0 C
22.11.2011 02:16 -2,3 C 96 % 1015 hPa 0,0 l/m 0,0 km/h (0 Bft) W-SW 240 0 min 0 lux 0 min -2,8 C -2,3 C
22.11.2011 02:31 -2,4 C 96 % 1015 hPa 0,0 l/m 0,0 km/h (0 Bft) W-SW 240 0 min 0 lux 0 min -2,9 C -2,4 C
22.11.2011 02:46 -2,4 C 96 % 1015 hPa 0,0 l/m 0,0 km/h (0 Bft) W-SW 240 0 min 0 lux 0 min -2,9 C -2,4 C
22.11.2011 03:01 -2,5 C 96 % 1015 hPa 0,0 l/m 0,0 km/h (0 Bft) W-SW 240 0 min 0 lux 0 min -3,0 C -2,5 C
22.11.2011 03:16 -2,1 C 97 % 1015 hPa 0,0 l/m 0,0 km/h (0 Bft) W-SW 240 0 min 0 lux 0 min -2,5 C -2,1 C
22.11.2011 03:31 -2,2 C 97 % 1015 hPa 0,0 l/m 0,0 km/h (0 Bft) W-SW 240 0 min 0 lux 0 min -2,6 C -2,2 C
22.11.2011 03:46 -2,1 C 97 % 1015 hPa 0,0 l/m 0,0 km/h (0 Bft) SW 235 0 min 0 lux 0 min -2,5 C -2,1 C
22.11.2011 04:01 -1,9 C 97 % 1015 hPa 0,0 l/m 0,0 km/h (0 Bft) W-SW 240 0 min 0 lux 0 min -2,3 C -1,9 C
22.11.2011 04:16 -1,6 C 97 % 1015 hPa 0,0 l/m 0,0 km/h (0 Bft) W-SW 240 0 min 0 lux 0 min -2,0 C -1,6 C
22.11.2011 04:24 -1,3 C 97 % 1015 hPa 0,0 l/m 0,0 km/h (0 Bft) W-SW 240 0 min 0 lux 0 min -1,7 C -1,3 C
22.11.2011 04:39 -1,1 C 97 % 1015 hPa 0,0 l/m 0,0 km/h (0 Bft) W-SW 240 0 min 0 lux 0 min -1,5 C -1,1 C
22.11.2011 04:54 -0,8 C 97 % 1015 hPa 0,0 l/m 0,0 km/h (0 Bft) W-SW 240 0 min 0 lux 0 min -1,2 C -0,8 C
22.11.2011 05:09 -0,5 C 98 % 1015 hPa 0,0 l/m 0,0 km/h (0 Bft) W-SW 240 0 min 0 lux 0 min -0,8 C -0,5 C
22.11.2011 05:24 -0,4 C 98 % 1015 hPa 0,0 l/m 0,0 km/h (0 Bft) W-SW 240 0 min 0 lux 0 min -0,7 C -0,4 C
22.11.2011 05:39 -0,3 C 98 % 1015 hPa 0,0 l/m 0,0 km/h (0 Bft) W-SW 240 0 min 0 lux 0 min -0,6 C -0,3 C
22.11.2011 05:54 -0,2 C 98 % 1015 hPa 0,0 l/m 0,0 km/h (0 Bft) W-SW 240 0 min 0 lux 0 min -0,5 C -0,2 C
22.11.2011 06:09 -0,2 C 98 % 1015 hPa 0,0 l/m 0,0 km/h (0 Bft) W-SW 240 0 min 0 lux 0 min -0,5 C -0,2 C
22.11.2011 06:24 0,0 C 98 % 1015 hPa 0,0 l/m 0,0 km/h (0 Bft) W-SW 240 0 min 0 lux 0 min -0,3 C 0,0 C
22.11.2011 06:39 0,1 C 98 % 1015 hPa 0,0 l/m 0,0 km/h (0 Bft) W-SW 240 0 min 0 lux 0 min -0,2 C 0,1 C
22.11.2011 06:54 0,3 C 98 % 1015 hPa 0,0 l/m 0,0 km/h (0 Bft) W-SW 240 0 min 0 lux 0 min 0,0 C 0,3 C
22.11.2011 07:09 0,5 C 98 % 1015 hPa 0,0 l/m 0,0 km/h (0 Bft) W-SW 240 0 min 0 lux 0 min 0,2 C 0,5 C
22.11.2011 07:24 0,8 C 98 % 1016 hPa 0,0 l/m 0,0 km/h (0 Bft) W-SW 240 0 min 0 lux 0 min 0,5 C 0,8 C
22.11.2011 07:39 1,0 C 98 % 1016 hPa 0,0 l/m 0,0 km/h (0 Bft) W-SW 240 0 min 65 lux 0 min 0,7 C 1,0 C
22.11.2011 08:01 1,2 C 98 % 1016 hPa 0,0 l/m 0,0 km/h (0 Bft) W-SW 240 0 min 367 lux 0 min 0,9 C 1,2 C
22.11.2011 08:16 1,2 C 98 % 1016 hPa 0,0 l/m 0,0 km/h (0 Bft) W-SW 240 0 min 597 lux 0 min 0,9 C 1,2 C
22.11.2011 08:30 1,5 C 98 % 1016 hPa 0,0 l/m 0,0 km/h (0 Bft) W-SW 240 0 min 1,41 klux 0 min 1,2 C 1,5 C
22.11.2011 08:45 1,8 C 98 % 1016 hPa 0,3 l/m 0,0 km/h (0 Bft) W-SW 240 0 min 2,78 klux 15 min 1,5 C 1,8 C
22.11.2011 09:00 2,0 C 98 % 1016 hPa 0,0 l/m 0,0 km/h (0 Bft) W-SW 240 0 min 4,14 klux 0 min 1,7 C 2,0 C
22.11.2011 09:15 2,6 C 98 % 1016 hPa 0,0 l/m 0,0 km/h (0 Bft) W-SW 240 0 min 4,54 klux 0 min 2,3 C 2,6 C
22.11.2011 09:31 3,0 C 99 % 1016 hPa 0,0 l/m 0,0 km/h (0 Bft) W-SW 240 0 min 5,83 klux 0 min 2,9 C 3,0 C
22.11.2011 09:46 2,7 C 98 % 1016 hPa 0,0 l/m 0,0 km/h (0 Bft) W-SW 240 0 min 9,5 klux 0 min 2,4 C 2,7 C
22.11.2011 10:00 2,8 C 98 % 1017 hPa 0,0 l/m 0,0 km/h (0 Bft) W-SW 240 0 min 17,1 klux 0 min 2,5 C 2,8 C
22.11.2011 10:15 3,3 C 98 % 1017 hPa 0,0 l/m 0,0 km/h (0 Bft) W-SW 240 0 min 18,0 klux 0 min 3,0 C 3,3 C
22.11.2011 10:30 3,9 C 98 % 1017 hPa 0,0 l/m 0,0 km/h (0 Bft) W-SW 240 0 min 34,1 klux 0 min 3,6 C 3,9 C
22.11.2011 10:45 4,7 C 98 % 1017 hPa 0,0 l/m 0,0 km/h (0 Bft) W-SW 240 0 min 34,3 klux 0 min 4,4 C 4,7 C
22.11.2011 11:01 5,4 C 99 % 1017 hPa 0,0 l/m 0,0 km/h (0 Bft) W-SW 240 0 min 36,2 klux 0 min 5,3 C 5,4 C
22.11.2011 11:16 6,4 C 99 % 1017 hPa 0,0 l/m 0,0 km/h (0 Bft) W-SW 240 15 min 40,5 klux 0 min 6,3 C 6,4 C
22.11.2011 11:30 7,6 C 99 % 1017 hPa 0,0 l/m 0,0 km/h (0 Bft) W-SW 240 14 min 44,6 klux 0 min 7,5 C 7,6 C
22.11.2011 11:45 8,6 C 99 % 1017 hPa 0,0 l/m 0,0 km/h (0 Bft) W-SW 240 15 min 47,7 klux 0 min 8,5 C 8,6 C
22.11.2011 12:00 9,5 C 99 % 1017 hPa 0,0 l/m 0,0 km/h (0 Bft) W-SW 240 15 min 47,2 klux 0 min 9,4 C 9,5 C
22.11.2011 12:15 10,4 C 98 % 1017 hPa 0,0 l/m 11,3 km/h (2 Bft) W-SW45 240 15 min 49,2 klux 0 min 10,1 C 7,3 C
22.11.2011 12:31 10,8 C 96 % 1017 hPa 0,0 l/m 9,3 km/h (2 Bft) W-SW22.5 240 16 min 45,6 klux 0 min 10,2 C 8,9 C
22.11.2011 12:46 10,9 C 94 % 1017 hPa 0,0 l/m 7,0 km/h (2 Bft) SW 220 0 min 33,0 klux 0 min 10,0 C 10,5 C
22.11.2011 13:00 11,0 C 93 % 1017 hPa 0,0 l/m 0,0 km/h (0 Bft) SW 220 0 min 18,8 klux 0 min 9,9 C 11,0 C
22.11.2011 13:15 11,2 C 92 % 1016 hPa 0,0 l/m 0,6 km/h (0 Bft) SW 220 0 min 28,7 klux 0 min 9,9 C 11,2 C
22.11.2011 13:30 11,6 C 91 % 1016 hPa 0,0 l/m 0,0 km/h (0 Bft) SW 220 0 min 39,2 klux 0 min 10,2 C 11,6 C
22.11.2011 13:45 12,0 C 90 % 1016 hPa 0,0 l/m 0,0 km/h (0 Bft) SW 220 0 min 39,2 klux 0 min 10,4 C 12,0 C
22.11.2011 14:01 12,4 C 89 % 1017 hPa 0,0 l/m 0,0 km/h (0 Bft) SW 220 16 min 44,9 klux 0 min 10,6 C 12,4 C
22.11.2011 14:16 12,4 C 88 % 1016 hPa 0,0 l/m 0,0 km/h (0 Bft) SW 215 0 min 29,9 klux 0 min 10,5 C 12,4 C
22.11.2011 14:30 12,1 C 87 % 1016 hPa 0,0 l/m 0,0 km/h (0 Bft) SW 215 0 min 31,7 klux 0 min 10,0 C 12,1 C
22.11.2011 14:45 12,1 C 87 % 1016 hPa 0,0 l/m 0,0 km/h (0 Bft) SW 215 0 min 27,2 klux 0 min 10,0 C 12,1 C
22.11.2011 15:00 11,9 C 86 % 1016 hPa 0,0 l/m 0,0 km/h (0 Bft) SW 215 0 min 20,5 klux 0 min 9,6 C 11,9 C
22.11.2011 15:15 11,8 C 86 % 1017 hPa 0,0 l/m 0,0 km/h (0 Bft) SW 215 0 min 21,8 klux 0 min 9,5 C 11,8 C
22.11.2011 15:31 11,8 C 86 % 1017 hPa 0,0 l/m 0,0 km/h (0 Bft) SW 220 0 min 18,4 klux 0 min 9,5 C 11,8 C
22.11.2011 15:46 11,4 C 85 % 1017 hPa 0,0 l/m 0,0 km/h (0 Bft) W-SW 240 0 min 10,2 klux 0 min 9,0 C 11,4 C
22.11.2011 16:00 10,9 C 86 % 1017 hPa 0,0 l/m 0,0 km/h (0 Bft) SW 235 0 min 5,89 klux 0 min 8,7 C 10,9 C
22.11.2011 16:15 10,5 C 87 % 1017 hPa 0,0 l/m 0,0 km/h (0 Bft) SW 235 0 min 3,38 klux 0 min 8,4 C 10,5 C
22.11.2011 16:30 10,0 C 87 % 1017 hPa 0,0 l/m 0,0 km/h (0 Bft) SW 235 0 min 2,11 klux 0 min 7,9 C 10,0 C
22.11.2011 16:45 9,1 C 87 % 1017 hPa 0,0 l/m 0,0 km/h (0 Bft) W-SW 240 0 min 1,08 klux 0 min 7,1 C 9,1 C
22.11.2011 17:01 8,2 C 89 % 1017 hPa 0,0 l/m 0,0 km/h (0 Bft) SW 235 0 min 362 lux 0 min 6,5 C 8,2 C
22.11.2011 17:16 7,5 C 90 % 1017 hPa 0,0 l/m 0,0 km/h (0 Bft) SW 235 0 min 59 lux 0 min 6,0 C 7,5 C
22.11.2011 17:30 7,0 C 91 % 1018 hPa 0,0 l/m 0,0 km/h (0 Bft) W-SW 240 0 min 6 lux 0 min 5,6 C 7,0 C
22.11.2011 17:45 6,6 C 91 % 1018 hPa 0,0 l/m 0,0 km/h (0 Bft) W-SW 240 0 min 0 lux 0 min 5,2 C 6,6 C
22.11.2011 18:00 6,4 C 91 % 1018 hPa 0,0 l/m 0,0 km/h (0 Bft) W-SW 240 0 min 0 lux 0 min 5,0 C 6,4 C
22.11.2011 18:15 5,9 C 93 % 1018 hPa 0,0 l/m 0,0 km/h (0 Bft) W-SW 240 0 min 0 lux 0 min 4,9 C 5,9 C
22.11.2011 18:31 5,6 C 93 % 1018 hPa 0,0 l/m 0,0 km/h (0 Bft) SW 235 0 min 0 lux 0 min 4,6 C 5,6 C
22.11.2011 18:46 4,9 C 93 % 1018 hPa 0,0 l/m 0,0 km/h (0 Bft) SW 235 0 min 0 lux 0 min 3,9 C 4,9 C
22.11.2011 19:00 4,5 C 93 % 1018 hPa 0,0 l/m 0,0 km/h (0 Bft) SW 235 0 min 0 lux 0 min 3,5 C 4,5 C
22.11.2011 19:15 4,3 C 94 % 1018 hPa 0,0 l/m 0,0 km/h (0 Bft) SW 235 0 min 0 lux 0 min 3,4 C 4,3 C
22.11.2011 19:30 3,9 C 94 % 1019 hPa 0,0 l/m 0,0 km/h (0 Bft) W-SW 240 0 min 0 lux 0 min 3,0 C 3,9 C
22.11.2011 19:45 3,6 C 94 % 1019 hPa 0,0 l/m 0,0 km/h (0 Bft) W-SW 240 0 min 0 lux 0 min 2,7 C 3,6 C
22.11.2011 20:01 3,2 C 95 % 1019 hPa 0,0 l/m 0,0 km/h (0 Bft) SW 235 0 min 0 lux 0 min 2,5 C 3,2 C
22.11.2011 20:15 2,9 C 95 % 1019 hPa 0,0 l/m 0,0 km/h (0 Bft) W-SW 240 0 min 0 lux 0 min 2,2 C 2,9 C
22.11.2011 20:30 2,9 C 95 % 1019 hPa 0,0 l/m 0,0 km/h (0 Bft) W-SW 240 0 min 0 lux 0 min 2,2 C 2,9 C
22.11.2011 20:45 2,7 C 95 % 1019 hPa 0,0 l/m 0,0 km/h (0 Bft) SW 235 0 min 0 lux 0 min 2,0 C 2,7 C
22.11.2011 21:00 2,6 C 95 % 1019 hPa 0,0 l/m 0,0 km/h (0 Bft) SW 235 0 min 0 lux 0 min 1,9 C 2,6 C
22.11.2011 21:15 2,5 C 95 % 1019 hPa 0,0 l/m 0,0 km/h (0 Bft) SW 235 0 min 0 lux 0 min 1,8 C 2,5 C
22.11.2011 21:31 2,2 C 96 % 1019 hPa 0,0 l/m 0,0 km/h (0 Bft) SW 235 0 min 0 lux 0 min 1,6 C 2,2 C
22.11.2011 21:45 2,1 C 96 % 1019 hPa 0,0 l/m 0,0 km/h (0 Bft) SW 235 0 min 0 lux 0 min 1,5 C 2,1 C
22.11.2011 22:00 2,0 C 96 % 1019 hPa 0,0 l/m 0,0 km/h (0 Bft) SW 235 0 min 0 lux 0 min 1,4 C 2,0 C
22.11.2011 22:15 1,9 C 96 % 1019 hPa 0,0 l/m 0,0 km/h (0 Bft) SW 235 0 min 0 lux 0 min 1,3 C 1,9 C
22.11.2011 22:30 1,9 C 96 % 1020 hPa 0,0 l/m 0,0 km/h (0 Bft) W-SW 240 0 min 0 lux 0 min 1,3 C 1,9 C
22.11.2011 22:45 1,8 C 96 % 1019 hPa 0,0 l/m 0,0 km/h (0 Bft) W-SW 240 0 min 0 lux 0 min 1,2 C 1,8 C
22.11.2011 23:01 1,9 C 97 % 1019 hPa 0,0 l/m 0,0 km/h (0 Bft) SW 235 0 min 0 lux 0 min 1,5 C 1,9 C
22.11.2011 23:15 1,9 C 97 % 1020 hPa 0,0 l/m 0,0 km/h (0 Bft) SW 235 0 min 0 lux 0 min 1,5 C 1,9 C
22.11.2011 23:30 2,0 C 97 % 1020 hPa 0,0 l/m 0,0 km/h (0 Bft) SW 235 0 min 0 lux 0 min 1,6 C 2,0 C
22.11.2011 23:45 2,1 C 97 % 1020 hPa 0,0 l/m 0,0 km/h (0 Bft) SW 235 0 min 0 lux 0 min 1,7 C 2,1 C
22.11.2011 23:54 2,5 C 97 % 1020 hPa 0,0 l/m 0,0 km/h (0 Bft) SW 235 0 min 0 lux 0 min 2,1 C 2,5 C
_ Min-Zeit 03:01 15:46 00:01 - 00:01 - - - - - 03:01 03:01
Minimum _ -2,5 C 85 % 1015 hPa - 0,0 km/h (0 Bft) - - - - - -3,0 C -2,5 C
_ Max-Zeit 14:01 09:31 22:30 08:45 12:15 - - 12:31 12:15 08:45 14:01 14:01
Maximum _ 12,4 C 99 % 1020 hPa 0,3 l/m 11,3 km/h
W-SW (2 Bft)
- - 16 min 49,2 klux 15 min 10,6 C 12,4 C
Durchschnitt _ 3,7 C 95 % 1017 hPa #0,3 l/m 0,3 km/h (0 Bft) W-SW - #1:46 h 8,60 klux #15 min. 2,9 C 3,6 C